Vertical_Velocity
-3 -27 3 10 17 8 9 1 -2 -9 -6 2 1 1 2 1 0 -0 -2 -1 1 -0 -2 -3 -3 -2 -3 -2 -1 -2 0 -4 -1 -2 -1 -3 -1 -2 -0 -2 -0 0 -1
6 -7 -17 -5 0 10 8 8 1 1 -1 -6 -2 -1 1 2 -0 -1 1 -4 -0 -3 -1 -0 -1 2 -0 -1 -2 -0 -3 -1 -3 -2 -3 -2 -0 -1 -2 -3 -3 -1 -2
2 -1 20 89 18 5 14 6 8 12 9 -1 -1 -1 -1 1 -3 -1 -2 1 -3 -1 -1 -0 -1 -1 -1 0 -4 -3 -2 -1 1 -3 1 -3 -1 -2 -1 -3 -1 -2 1
2 12 15 -16 35 13 12 11 6 0 4 5 3 2 2 -1 -1 -0 -1 0 -1 1 -1 1 -2 0 -2 -4 -4 0 0 -4 2 -0 -4 -1 -3 -2 -3 -0 -3 -1 0
0 1 -11 -20 2 -0 -8 -5 -4 1 -7 -3 -4 3 -2 4 -2 -1 1 -0 0 -0 -0 2 -4 0 -3 -1 -8 -3 2 -5 -4 -1 -4 -2 -0 -3 -2 -2 -1 -1 0
9 11 9 14 19 -5 4 9 2 11 5 2 -1 -6 1 -1 3 -3 -0 1 -4 -1 -2 0 0 -3 -2 1 -7 -3 2 -8 -2 -1 -0 -1 -3 0 -1 -1 -2 -2 -2
7 1 9 19 12 -3 6 10 1 -7 5 9 3 -2 2 -0 2 -0 -2 -1 -3 2 -2 0 4 -1 -1 -1 -3 -4 3 -2 1 -3 0 -1 -2 -2 -3 -3 -1 1 -1
13 12 20 43 16 3 9 8 6 3 7 5 1 -1 -0 -2 6 0 -0 -1 0 -3 -0 0 0 0 -1 -2 -1 -2 -1 0 -2 1 1 -2 -0 -1 -1 -2 1 -3 -1
8 14 -11 8 82 116 103 31 34 10 -31 19 6 1 5 3 4 2 -3 2 -4 2 -2 0 1 2 3 -1 -5 -8 5 2 -2 -1 -1 1 -4 -1 0 -3 1 2 -3
8 1 4 -74 -48 -51 -7 33 5 9 -29 10 16 1 3 7 7 1 -0 1 4 -3 -0 0 0 -2 3 0 -1 -5 1 1 -0 1 -4 1 -4 0 0 -3 -0 1 1
3 4 -9 1 -8 5 -28 -36 7 -13 5 0 12 4 1 5 4 4 2 -0 -2 -9 5 -1 0 -3 2 2 2 -9 1 0 -2 1 -3 -1 -1 -3 -2 1 -2 -3 -3
6 4 7 -0 4 16 -13 16 -45 -4 -35 -4 0 -0 6 9 7 4 -6 -2 0 -1 -3 -2 2 -1 3 -0 -0 -2 -2 -2 -3 -2 -3 0 -1 -3 0 0 2 -2 -1
2 3 -3 -1 -4 -1 8 13 1 -3 7 -5 -16 3 -22 2 5 -1 2 -3 -3 -1 2 0 3 1 1 -1 4 -1 -4 2 -2 0 -3 -1 -2 1 -3 -1 1 -2 -2
-8 -9 -4 1 3 -0 2 2 -6 6 -3 -3 -5 3 2 -1 2 -1 -6 -2 -5 -1 -0 -1 1 0 -0 3 2 -2 -5 0 -3 -1 1 -0 -5 3 6 4 -1 -3 -2
4 -5 -14 2 -4 3 -3 5 -3 2 -5 -5 6 3 -6 -5 -7 -7 -1 -6 -6 -5 2 -1 2 1 -3 3 -3 -2 -4 -4 -0 -0 -1 -4 3 -3 -1 -6 -2 -4 -1
-1 0 11 13 -1 -2 11 2 3 2 -2 -2 1 -22 -6 -8 -3 2 1 -5 -4 -2 -1 1 -2 3 -1 2 -2 -3 1 -9 4 1 -0 -2 -6 -4 -5 -2 -0 -3 -2
-10 -8 19 1 6 -4 3 -1 0 6 -2 -8 2 -7 -13 -4 -2 2 -2 -7 -2 0 -0 -1 3 -0 -5 6 -4 1 -2 2 -3 -1 -1 1 -0 -1 -3 -2 -4 -3 2
-1 0 -1 -2 -10 -0 4 8 0 22 -4 -3 4 -3 -2 -6 -0 0 -5 3 3 -2 -2 1 -2 -2 2 -0 -3 -3 0 -1 3 -5 -1 -5 2 6 -1 -2 2 -1 -0
-6 -3 -0 3 7 0 -4 1 1 2 -3 -5 2 -2 -5 -1 1 -3 -3 1 -1 -2 0 1 -4 -1 -0 -3 0 2 1 4 -2 -1 -1 -2 -1 -3 -3 -2 -3 -2 -1
-2 -1 -3 -4 -2 -5 6 2 1 -1 -5 -3 -5 -1 -5 -4 -1 -5 -4 3 -0 -1 1 2 4 -5 -3 -3 -1 -0 3 -2 0 1 1 -1 -5 -5 -2 -1 1 -3 -2
2 -1 1 -2 -5 -5 -6 -7 -6 -4 -13 -8 -3 -2 3 2 -6 -6 -4 -1 -4 -3 2 -2 1 -3 -2 4 5 -8 -2 1 1 2 -5 2 -2 -4 -1 2 2 -1 2
-7 -4 -1 -2 -5 -6 -10 0 -3 -3 2 -3 -4 1 -1 -3 -1 0 -7 -11 -14 -4 3 1 0 -1 1 -2 -3 17 -8 -4 -4 3 4 -4 -5 -8 -2 -5 -3 -4 -3
1 -2 -3 -3 -6 -9 -5 -3 -4 -4 -3 -2 -5 -0 -1 -1 -1 0 6 -5 -22 2 2 -2 -2 5 2 -6 11 -8 5 3 -5 0 0 -4 -5 -4 -9 -7 -6 -7 -1
-3 -5 -5 -5 -5 -0 -1 -4 -1 1 3 5 3 2 -8 1 7 2 2 -2 9 1 1 6 2 4 1 1 6 -6 10 -0 7 0 -2 -1 -1 -2 2 -3 -1 -2 -2
-5 -1 -0 -2 -1 -2 -1 1 1 -8 -3 -6 -10 -8 2 1 -2 -1 1 4 2 -3 2 -5 2 4 -6 7 -8 0 -4 9 -0 -1 -3 8 0 -2 -4 -4 -4 -2 -7
-1 -3 -4 -3 -2 -5 -0 -2 -6 -5 -2 -3 4 5 2 10 0 -10 -6 1 3 4 -0 1 4 6 8 -1 2 7 3 -1 3 3 -2 -1 -1 5 -2 -0 3 -1 -4
Height
3136 3133 3141 3142 3143 3146 3147 3148 3150 3153 3156 3158 3160 3161 3160 3160 3161 3163 3164 3166 3167 3167 3167 3168 3168 3169 3170 3170 3171 3172 3173 3173 3173 3173 3173 3173 3173 3173 3173 3173 3174 3173 3174
3138 3136 3139 3143 3142 3145 3145 3146 3148 3150 3153 3156 3159 3160 3161 3161 3161 3162 3164 3165 3167 3167 3168 3169 3170 3170 3171 3172 3172 3173 3173 3174 3174 3174 3175 3175 3175 3174 3175 3174 3175 3175 3175
3138 3141 3139 3121 3137 3140 3144 3144 3147 3149 3151 3154 3157 3159 3160 3161 3162 3163 3164 3165 3167 3168 3169 3170 3171 3172 3171 3172 3171 3172 3173 3175 3175 3175 3175 3175 3176 3176 3175 3176 3175 3176 3175
3134 3132 3131 3130 3128 3136 3140 3142 3144 3148 3150 3153 3155 3157 3159 3161 3162 3163 3164 3166 3168 3169 3170 3171 3172 3172 3172 3173 3172 3173 3175 3175 3176 3175 3175 3175 3176 3176 3175 3175 3176 3176 3175
3130 3125 3128 3113 3122 3134 3140 3141 3145 3146 3149 3152 3154 3157 3159 3161 3162 3164 3165 3167 3169 3170 3172 3173 3174 3173 3174 3174 3172 3174 3175 3175 3175 3175 3175 3176 3176 3176 3176 3176 3175 3175 3175
3127 3125 3121 3122 3126 3134 3137 3136 3141 3143 3147 3149 3151 3156 3159 3161 3162 3164 3165 3167 3170 3172 3173 3174 3175 3175 3175 3175 3173 3175 3175 3174 3175 3175 3175 3175 3176 3176 3176 3176 3175 3175 3175
3121 3122 3122 3124 3125 3127 3131 3133 3135 3141 3145 3146 3149 3153 3157 3161 3162 3164 3166 3168 3171 3173 3174 3176 3175 3175 3175 3174 3174 3175 3177 3176 3176 3176 3175 3175 3176 3176 3176 3176 3176 3176 3175
3119 3117 3121 3121 3119 3122 3127 3128 3130 3136 3140 3145 3148 3152 3156 3160 3162 3164 3167 3169 3171 3173 3174 3175 3176 3176 3176 3175 3174 3175 3177 3176 3176 3176 3176 3176 3177 3177 3177 3177 3176 3176 3175
3115 3115 3115 3092 3094 3107 3108 3116 3121 3127 3134 3142 3146 3151 3155 3159 3162 3164 3167 3169 3171 3173 3174 3175 3175 3176 3176 3176 3175 3174 3178 3178 3177 3177 3177 3177 3177 3176 3176 3176 3176 3175 3174
3114 3113 3113 3098 3092 3104 3095 3110 3112 3120 3126 3142 3145 3149 3154 3157 3160 3162 3165 3168 3170 3173 3174 3174 3175 3176 3176 3176 3175 3174 3177 3178 3177 3177 3176 3176 3176 3176 3176 3175 3175 3174 3173
3112 3112 3110 3105 3108 3101 3101 3109 3113 3118 3131 3141 3143 3148 3151 3155 3158 3161 3164 3166 3170 3171 3173 3175 3175 3176 3177 3176 3175 3174 3176 3177 3177 3177 3177 3176 3176 3175 3175 3174 3174 3174 3172
3109 3108 3108 3108 3107 3108 3109 3108 3117 3125 3131 3136 3141 3148 3151 3157 3158 3161 3164 3166 3170 3171 3174 3174 3175 3176 3177 3177 3175 3174 3176 3177 3177 3177 3176 3176 3175 3174 3174 3173 3173 3172 3171
3105 3100 3100 3101 3104 3109 3112 3112 3116 3120 3125 3128 3134 3142 3148 3155 3157 3161 3164 3168 3170 3172 3173 3173 3174 3176 3176 3176 3174 3174 3175 3176 3176 3175 3175 3175 3174 3174 3173 3173 3172 3171 3171
3097 3094 3095 3097 3101 3104 3107 3109 3113 3117 3120 3126 3135 3142 3147 3153 3155 3159 3164 3168 3170 3171 3172 3173 3175 3176 3175 3174 3174 3173 3173 3175 3175 3174 3173 3173 3173 3172 3172 3172 3171 3171 3169
3092 3090 3093 3095 3096 3100 3105 3108 3113 3115 3119 3126 3132 3137 3143 3148 3154 3161 3166 3168 3170 3171 3171 3172 3174 3173 3173 3173 3173 3172 3172 3173 3173 3172 3172 3170 3170 3170 3170 3170 3169 3167 3166
3088 3090 3090 3092 3097 3100 3101 3105 3108 3114 3118 3122 3128 3133 3141 3149 3156 3161 3165 3167 3168 3169 3170 3171 3170 3171 3172 3172 3172 3172 3171 3170 3172 3171 3169 3168 3169 3169 3168 3167 3166 3165 3163
3089 3088 3087 3092 3095 3099 3103 3104 3107 3110 3112 3122 3127 3129 3140 3149 3155 3160 3163 3165 3166 3167 3168 3169 3169 3170 3171 3171 3170 3170 3170 3168 3167 3168 3167 3167 3166 3166 3165 3164 3163 3161 3158
3085 3087 3089 3089 3093 3097 3100 3102 3104 3110 3115 3120 3124 3134 3141 3148 3155 3158 3160 3161 3163 3164 3166 3167 3167 3168 3168 3169 3169 3168 3167 3167 3165 3163 3164 3164 3163 3162 3160 3160 3157 3155 3152
3088 3087 3087 3089 3092 3095 3097 3100 3106 3111 3114 3121 3127 3135 3142 3148 3153 3154 3156 3158 3161 3162 3164 3165 3165 3165 3165 3165 3164 3164 3164 3163 3162 3162 3159 3158 3158 3157 3157 3154 3151 3150 3147
3093 3091 3088 3088 3092 3094 3096 3100 3105 3108 3112 3120 3127 3134 3140 3145 3149 3151 3154 3156 3158 3160 3162 3162 3162 3162 3162 3161 3160 3159 3158 3159 3159 3159 3158 3155 3150 3146 3145 3145 3144 3143 3142
3097 3096 3096 3095 3094 3096 3100 3104 3108 3110 3115 3122 3127 3134 3139 3144 3147 3149 3151 3154 3155 3157 3159 3159 3159 3159 3158 3157 3154 3154 3153 3152 3153 3153 3151 3151 3149 3146 3143 3139 3138 3136 3134
3098 3098 3099 3099 3100 3102 3105 3110 3113 3117 3121 3124 3129 3133 3137 3140 3143 3146 3148 3151 3153 3154 3155 3156 3155 3155 3155 3154 3152 3150 3147 3147 3147 3147 3143 3141 3140 3139 3138 3136 3133 3131 3129
3098 3100 3102 3102 3103 3104 3107 3110 3113 3117 3120 3123 3126 3129 3133 3136 3139 3142 3144 3146 3146 3147 3147 3149 3150 3150 3149 3149 3147 3147 3143 3139 3140 3139 3138 3135 3132 3131 3129 3127 3124 3122 3120
3097 3098 3100 3101 3103 3104 3107 3109 3112 3114 3117 3120 3124 3128 3132 3134 3137 3138 3140 3141 3141 3143 3144 3145 3145 3145 3142 3141 3138 3138 3133 3133 3132 3131 3132 3130 3126 3123 3121 3119 3117 3115 3113
3095 3097 3099 3101 3103 3105 3106 3109 3112 3113 3117 3120 3123 3125 3127 3130 3131 3133 3135 3137 3138 3138 3138 3138 3137 3136 3134 3131 3129 3128 3128 3125 3126 3127 3126 3125 3120 3116 3112 3110 3107 3104 3102
3094 3095 3097 3100 3101 3103 3105 3108 3110 3109 3112 3114 3117 3120 3123 3125 3127 3128 3130 3131 3132 3132 3132 3130 3129 3129 3126 3124 3122 3119 3118 3119 3119 3119 3118 3117 3115 3114 3107 3103 3101 3096 3093